[[{"header":{"parameterUnit":"m.s-1","parameterCategory":1,"la1":30.2991,"la2":30.254,"lo1":-89.0895,"lo2":-89.0444,"dy":0.0017,"dx":0.0017,"nx":28,"ny":28,"refTime":"2024-03-09T03:00:00:Z","depth":0,"parameterNumber":2,"parameterNumberName":"U-component_of_WINDS"},"data":[0,0,0,0,0,0,0,0,0,0,0,0,0,0,0,0,0,0,0,0,0,0,0,0,0,0,0,0,0,0,0,0,0,0,0,0,0,0,0,0,0,0,0,0,0,0,0,0,0,0,0,0,0,0,0,0,0,0,1.217,1.217,0,1.2195,1.2195,1.2196,1.2201,1.2201,1.2201,1.2201,1.2226,1.2227,1.2228,0,0,0,0,0,0,0,0,0,0,0,0,0,1.2128,1.2129,1.217,1.217,1.2171,1.2195,1.2195,1.2196,1.2201,1.2201,1.2201,1.2201,1.2226,1.2227,1.2228,0,0,0,0,0,0,0,0,0,0,0,0,0,1.2149,1.2129,1.217,1.2176,1.2177,1.2195,1.2195,1.2196,1.2201,1.2201,1.2201,1.2201,1.2226,1.2227,1.2228,1.2242,0,0,1.2232,1.2233,0,0,0,0,0,0,0,0,1.2148,1.2151,1.2175,1.2176,1.2177,1.2195,1.219,1.2211,1.2201,1.2192,1.2201,1.22,1.2216,1.2218,1.2223,1.2243,1.2244,1.2232,1.2233,1.2234,1.2234,0,0,0,0,0,0,0,1.2146,1.215,1.218,1.2175,1.2177,1.2178,1.2181,1.2194,1.2205,1.2193,1.2193,1.2196,1.2217,1.2222,1.2224,1.2244,1.2232,1.2233,1.2234,1.2235,1.2277,1.2278,0,0,0,0,0,0,1.2144,1.2148,1.2179,1.2181,1.2162,1.2179,1.2182,1.2189,1.2205,1.2207,1.2197,1.2197,1.222,1.2223,1.2225,1.2242,1.2234,1.2235,1.2236,1.2277,1.2278,1.2278,0,0,0,0,0,0,1.2143,1.2147,1.2178,1.2165,1.2169,1.218,1.2188,1.219,1.2196,1.2208,1.221,1.22,1.222,1.2223,1.2238,1.2243,1.2235,1.2237,1.2277,1.2277,1.2278,1.2277,0,0,0,0,0,0,1.2142,1.2146,1.2151,1.2165,1.217,1.219,1.2189,1.2191,1.2198,1.2198,1.2212,1.2214,1.222,1.2236,1.2239,1.2245,1.2238,1.2276,1.2277,1.2278,1.2276,1.2277,1.2278,0,0,0,0,0,1.214,1.2149,1.2151,1.2155,1.2176,1.219,1.2193,1.22,1.2198,1.2203,1.2212,1.2213,1.2242,1.2237,1.2241,1.2247,1.2276,1.2277,1.2277,1.2276,1.2277,1.2278,0,0,0,0,0,0,1.2135,1.2151,1.2153,1.2167,1.2177,1.2191,1.2198,1.2201,1.2212,1.2211,1.222,1.2223,1.2237,1.2244,1.2238,1.2262,1.2259,1.2261,1.2257,1.2258,1.2259,1.2256,1.2239,0,0,0,0,0,1.2136,1.2146,1.2159,1.217,1.2175,1.2186,1.2192,1.2197,1.2208,1.2212,1.2222,1.2232,1.2244,1.2251,1.2263,1.2278,1.2281,1.2284,1.2285,1.2285,1.2286,1.2296,1.2298,1.2281,1.2281,1.2281,0,0,1.2136,1.2147,1.2152,1.217,1.2178,1.2189,1.2189,1.22,1.2209,1.2214,1.2228,1.2236,1.2249,1.2264,1.2271,1.227,1.2292,1.2287,1.2287,1.2288,1.2297,1.2299,1.23,1.2281,1.2281,1.2281,0,0,1.2144,1.2152,1.2163,1.2172,1.2185,1.2192,1.2195,1.2209,1.2214,1.2229,1.2233,1.2244,1.2263,1.2273,1.228,1.2293,1.2296,1.2297,1.23,1.231,1.2311,1.2312,1.2318,1.2319,1.2298,1.2298,1.2298,0,1.2143,1.216,1.2168,1.2179,1.2187,1.2193,1.2204,1.2213,1.2229,1.2234,1.2233,1.2259,1.2268,1.2286,1.2289,1.2295,1.2299,1.2295,1.231,1.2312,1.2313,1.2318,1.232,1.2298,1.2298,1.2298,1.2298,0,1.2159,1.217,1.2177,1.2193,1.2202,1.2213,1.2224,1.2232,1.2236,1.2244,1.226,1.2271,1.2285,1.229,1.2294,1.2309,1.2308,1.2309,1.2306,1.2314,1.2319,1.2321,1.2298,1.2298,1.2298,1.2298,0,0,1.2162,1.2184,1.2186,1.2194,1.221,1.2219,1.2232,1.2246,1.2253,1.2265,1.2275,1.2293,1.2294,1.2302,1.2308,1.2316,1.2327,1.2316,1.2316,1.2318,1.2345,1.2344,1.2346,1.2329,1.233,1.233,1.2344,0,1.2171,1.2193,1.2201,1.2219,1.223,1.2237,1.2248,1.226,1.2268,1.2279,1.2288,1.23,1.23,1.2306,1.2314,1.2324,1.2332,1.2323,1.2339,1.234,1.2335,1.2349,1.2347,1.236,1.2346,1.2346,1.2346,0,1.2185,1.2197,1.2216,1.2232,1.2237,1.2246,1.2261,1.2272,1.2285,1.2291,1.2301,1.2307,1.2321,1.2318,1.2338,1.2331,1.2339,1.2345,1.2345,1.2347,1.2343,1.235,1.2364,1.2366,1.2349,1.2349,1.2349,0,1.2185,1.2207,1.2221,1.2228,1.2247,1.2253,1.2262,1.2275,1.2284,1.2297,1.2303,1.2317,1.2325,1.2337,1.2346,1.2343,1.2366,1.2363,1.2371,1.237,1.2374,1.2374,1.2389,1.238,1.238,1.238,1.238,0,1.2195,1.2206,1.2222,1.2231,1.2244,1.2255,1.2268,1.2277,1.2289,1.23,1.2307,1.2318,1.233,1.2343,1.235,1.2366,1.237,1.2375,1.2376,1.2374,1.2373,1.2378,1.2377,1.238,1.238,1.238,1.238,0,1.2197,1.2208,1.2224,1.2242,1.2246,1.2255,1.227,1.228,1.2289,1.2303,1.2307,1.2321,1.2336,1.2347,1.2367,1.2372,1.2389,1.2391,1.2384,1.2385,1.2392,1.2391,1.2411,1.2414,1.2403,1.2403,1.2403,0,1.2202,1.2211,1.223,1.2238,1.2246,1.2259,1.2268,1.2279,1.2289,1.2306,1.2313,1.2329,1.2342,1.2366,1.2378,1.2394,1.2396,1.2402,1.2398,1.2396,1.2396,1.2395,1.2397,1.2402,1.2402,1.2402,1.2402,0,1.221,1.2215,1.2228,1.2243,1.2254,1.2266,1.2279,1.2285,1.2299,1.2309,1.2325,1.2335,1.2356,1.2372,1.2388,1.2398,1.2403,1.2404,1.2406,1.2403,1.2399,1.2401,1.2385,1.2403,1.2403,1.2403,1.2403,1.2403,1.2214,1.2222,1.2237,1.2252,1.2263,1.2275,1.2284,1.2295,1.2308,1.2326,1.2332,1.2349,1.2364,1.2387,1.2397,1.241,1.241,1.2413,1.2414,1.2415,1.2415,1.2397,1.2413,1.2413,1.2413,1.2413,1.2413,0,1.2222,1.2232,1.2245,1.2263,1.2275,1.2279,1.2294,1.2303,1.2317,1.2331,1.2344,1.2363,1.2379,1.2393,1.241,1.2418,1.2421,1.2422,1.2421,1.2423,1.2414,1.241,1.2419,1.2419,1.2419,1.2419,1.2419,1.2419,1.2227,1.2243,1.225,1.2272,1.2282,1.2298,1.2306,1.2318,1.2329,1.2349,1.2363,1.2372,1.2386,1.2404,1.2419,1.2423,1.2429,1.243,1.2434,1.2425,1.2424,1.2423,1.242,1.2431,1.2431,1.2443,1.2443,1.2443]},{"header":{"parameterUnit":"m.s-1","parameterCategory":1,"la1":30.2991,"la2":30.254,"lo1":-89.0895,"lo2":-89.0444,"dy":0.0017,"dx":0.0017,"nx":28,"ny":28,"refTime":"2024-03-09T03:00:00:Z","depth":0,"parameterNumber":3,"parameterNumberName":"V-component_of_WINDS"},"data":[0,0,0,0,0,0,0,0,0,0,0,0,0,0,0,0,0,0,0,0,0,0,0,0,0,0,0,0,0,0,0,0,0,0,0,0,0,0,0,0,0,0,0,0,0,0,0,0,0,0,0,0,0,0,0,0,0,0,-7.6058,-7.606,0,-7.6251,-7.6253,-7.6255,-7.62,-7.6196,-7.6192,-7.6188,-7.6379,-7.6388,-7.6397,0,0,0,0,0,0,0,0,0,0,0,0,0,-7.5636,-7.5644,-7.6058,-7.606,-7.6063,-7.6251,-7.6253,-7.6256,-7.62,-7.6195,-7.6191,-7.6186,-7.6377,-7.6387,-7.6397,0,0,0,0,0,0,0,0,0,0,0,0,0,-7.5823,-7.5647,-7.6058,-7.6058,-7.606,-7.625,-7.6253,-7.6257,-7.6201,-7.6195,-7.6189,-7.6184,-7.6373,-7.6386,-7.6399,-7.6599,0,0,-7.6439,-7.6445,0,0,0,0,0,0,0,0,-7.5813,-7.5839,-7.6055,-7.6058,-7.6061,-7.6195,-7.6175,-7.6371,-7.6203,-7.6147,-7.6188,-7.6181,-7.6323,-7.634,-7.6389,-7.6608,-7.6616,-7.644,-7.6448,-7.6454,-7.6458,0,0,0,0,0,0,0,-7.58,-7.583,-7.6134,-7.6059,-7.6062,-7.6047,-7.6067,-7.6212,-7.6266,-7.6152,-7.6148,-7.6172,-7.6323,-7.6376,-7.6393,-7.6619,-7.644,-7.6452,-7.646,-7.6465,-7.7013,-7.7019,0,0,0,0,0,0,-7.5786,-7.582,-7.6128,-7.614,-7.592,-7.6059,-7.6081,-7.6158,-7.6264,-7.6275,-7.6177,-7.6169,-7.6356,-7.6377,-7.6399,-7.6641,-7.6454,-7.6466,-7.6474,-7.7006,-7.7014,-7.7021,0,0,0,0,0,0,-7.5777,-7.5814,-7.612,-7.5979,-7.6017,-7.6073,-7.6159,-7.6165,-7.6218,-7.6283,-7.6292,-7.6222,-7.6353,-7.6381,-7.655,-7.6647,-7.6472,-7.6484,-7.6998,-7.7008,-7.7018,-7.7126,0,0,0,0,0,0,-7.5765,-7.5811,-7.5889,-7.5981,-7.6025,-7.627,-7.6165,-7.6173,-7.6242,-7.6233,-7.6328,-7.6337,-7.635,-7.6531,-7.6563,-7.6662,-7.6494,-7.699,-7.7003,-7.7014,-7.7114,-7.7139,-7.716,0,0,0,0,0,-7.575,-7.591,-7.5893,-7.593,-7.6123,-7.6276,-7.63,-7.6314,-7.625,-7.6328,-7.637,-7.6334,-7.6631,-7.6549,-7.6585,-7.6689,-7.6984,-7.6999,-7.7013,-7.7104,-7.7134,-7.7159,0,0,0,0,0,0,-7.5825,-7.5922,-7.5904,-7.6099,-7.618,-7.6266,-7.6365,-7.6344,-7.6443,-7.6431,-7.6441,-7.6463,-7.6637,-7.6679,-7.6586,-7.6888,-7.6798,-7.6821,-7.6854,-7.6883,-7.6905,-7.6892,-7.6505,0,0,0,0,0,-7.5865,-7.5983,-7.606,-7.6224,-7.6266,-7.6309,-7.6376,-7.6379,-7.6462,-7.6495,-7.6549,-7.663,-7.6741,-7.6814,-7.692,-7.712,-7.714,-7.7209,-7.7232,-7.725,-7.727,-7.7379,-7.7411,-7.707,-7.707,-7.707,0,0,-7.5947,-7.6015,-7.6088,-7.6241,-7.6304,-7.6425,-7.6338,-7.6468,-7.6557,-7.6514,-7.6679,-7.6722,-7.6812,-7.6998,-7.7082,-7.7039,-7.7368,-7.7269,-7.7283,-7.7293,-7.7398,-7.743,-7.7459,-7.708,-7.7079,-7.7077,0,0,-7.6159,-7.6222,-7.6367,-7.6432,-7.653,-7.6557,-7.6592,-7.6682,-7.6709,-7.6875,-7.6846,-7.695,-7.7142,-7.7208,-7.7266,-7.7504,-7.7476,-7.7538,-7.7657,-7.7763,-7.779,-7.7814,-7.79,-7.793,-7.7557,-7.7558,-7.7558,0,-7.6249,-7.6431,-7.6443,-7.6578,-7.6646,-7.6615,-7.6761,-7.6823,-7.6949,-7.6996,-7.6945,-7.7186,-7.7245,-7.7446,-7.7505,-7.7553,-7.7592,-7.7528,-7.7786,-7.781,-7.7832,-7.7914,-7.7946,-7.7565,-7.7564,-7.7563,-7.7563,0,-7.6537,-7.6663,-7.6768,-7.6893,-7.6973,-7.7112,-7.7145,-7.7223,-7.722,-7.7252,-7.7421,-7.749,-7.761,-7.7658,-7.7655,-7.786,-7.783,-7.7783,-7.7692,-7.7872,-7.7949,-7.798,-7.7575,-7.7572,-7.757,-7.7569,0,0,-7.6801,-7.6933,-7.6971,-7.7028,-7.7134,-7.7231,-7.7368,-7.7488,-7.7555,-7.7643,-7.7758,-7.7922,-7.7879,-7.7946,-7.7949,-7.8043,-7.8228,-7.7984,-7.7987,-7.8028,-7.8459,-7.8494,-7.853,-7.821,-7.8216,-7.822,-7.8451,0,-7.7023,-7.7268,-7.7283,-7.7504,-7.7621,-7.7593,-7.7713,-7.7789,-7.7823,-7.7926,-7.7962,-7.8078,-7.8013,-7.8054,-7.8145,-7.8186,-7.8315,-7.817,-7.8316,-7.8321,-7.8296,-7.857,-7.8608,-7.8823,-7.8481,-7.8486,-7.849,0,-7.7314,-7.7414,-7.7647,-7.7737,-7.7787,-7.7895,-7.8006,-7.8105,-7.8191,-7.8209,-7.8284,-7.8275,-7.8414,-7.8319,-7.851,-7.8412,-7.8472,-7.8501,-7.851,-7.8525,-7.8417,-7.8593,-7.8891,-7.8924,-7.8537,-7.8534,-7.853,0,-7.7485,-7.7677,-7.7842,-7.7891,-7.8,-7.8077,-7.8125,-7.8206,-7.8277,-7.8373,-7.8419,-7.853,-7.859,-7.8675,-7.8696,-7.8624,-7.8888,-7.8793,-7.8906,-7.8906,-7.8963,-7.896,-7.9277,-7.9001,-7.9001,-7.9,-7.8999,0,-7.7732,-7.7876,-7.7921,-7.8022,-7.8182,-7.8198,-7.8355,-7.8398,-7.8471,-7.8579,-7.856,-7.8661,-7.8682,-7.8787,-7.8803,-7.896,-7.8987,-7.9005,-7.9008,-7.9008,-7.9006,-7.9048,-7.9034,-7.9009,-7.9007,-7.9005,-7.9004,0,-7.795,-7.7986,-7.8164,-7.8253,-7.8279,-7.8393,-7.8468,-7.8565,-7.8597,-7.8734,-7.8767,-7.8816,-7.894,-7.8968,-7.9114,-7.9125,-7.9311,-7.9299,-7.9283,-7.9282,-7.9394,-7.9383,-7.975,-7.9799,-7.949,-7.9493,-7.9496,0,-7.8106,-7.8217,-7.8318,-7.8391,-7.8443,-7.856,-7.8633,-7.8652,-7.8729,-7.8836,-7.892,-7.9041,-7.9139,-7.9337,-7.9385,-7.9496,-7.9487,-7.9607,-7.9503,-7.95,-7.949,-7.9483,-7.9495,-7.9627,-7.9631,-7.9633,-7.9636,0,-7.8379,-7.8391,-7.8499,-7.8614,-7.8702,-7.8792,-7.8878,-7.8938,-7.8969,-7.9056,-7.9183,-7.9259,-7.9409,-7.953,-7.9642,-7.969,-7.9669,-7.9668,-7.97,-7.9701,-7.9688,-7.9698,-7.9338,-7.966,-7.9657,-7.9655,-7.9654,-7.9653,-7.8571,-7.8668,-7.8756,-7.8876,-7.8944,-7.9025,-7.9121,-7.9165,-7.9273,-7.9398,-7.9402,-7.954,-7.9623,-7.9772,-7.9827,-7.9934,-7.9896,-7.9943,-7.9955,-7.9966,-7.9977,-7.9671,-7.9954,-7.9953,-7.9953,-7.9952,-7.9952,0,-7.8843,-7.8899,-7.901,-7.9132,-7.9227,-7.92,-7.9294,-7.9375,-7.9498,-7.9578,-7.9676,-7.9822,-7.9939,-7.9997,-8.0112,-8.0187,-8.018,-8.0217,-8.0212,-8.0223,-8.0003,-7.9964,-8.0221,-8.0221,-8.0221,-8.0221,-8.0221,-8.0221,-7.8996,-7.916,-7.9184,-7.938,-7.9433,-7.9571,-7.9627,-7.9702,-7.9766,-7.9931,-8.003,-8.0067,-8.0138,-8.0259,-8.0365,-8.0378,-8.0422,-8.0464,-8.0473,-8.0266,-8.0239,-8.0213,-8.0176,-8.0473,-8.0474,-8.0684,-8.0686,-8.0688]}]]